When you browse on this site, cookies collect data to enhance your experience and personalize the content and advertising you see.
Visit our Privacy Policy to learn more. By continuing to use the site, you agree to this use of cookies and data.
  • In Lithuania
  • List of Countries
  • For 7 days
  • Water Temperature
  • Satellite Maps
  • Weather Map
  • Weather Widgets
  • user-avatar
    Login

    Hourly Weather Karnkow

    Today, 21 March, Thursday

    Time Temperature Precipitation Wind Pressure Humidity
    00:00 +4°C° 0 mm 2 mps 757 mmHg 65%
    01:00 +3°C° 0 mm 3 mps 757 mmHg 66%
    02:00 +3°C° 0 mm 3 mps 757 mmHg 66%
    03:00 +3°C° 0 mm 3 mps 757 mmHg 66%
    04:00 +3°C° 0 mm 3 mps 757 mmHg 66%
    05:00 +3°C° 0 mm 3 mps 757 mmHg 67%
    06:00 +3°C° 0 mm 3 mps 757 mmHg 67%
    07:00 +4°C° 0 mm 3 mps 758 mmHg 67%
    08:00 +5°C° 0 mm 3 mps 758 mmHg 66%
    09:00 +8°C° 0 mm 3 mps 758 mmHg 65%
    10:00 +9°C° 0 mm 2 mps 758 mmHg 64%
    11:00 +10°C° 0 mm 3 mps 758 mmHg 63%
    12:00 +12°C° 0 mm 3 mps 757 mmHg 62%
    13:00 +12°C° 0 mm 3 mps 757 mmHg 64%
    14:00 +13°C° 0 mm 2 mps 757 mmHg 65%
    15:00 +13°C° 0 mm 2 mps 757 mmHg 66%
    16:00 +13°C° 0 mm 2 mps 756 mmHg 68%
    17:00 +12°C° 0 mm 1 mps 756 mmHg 71%
    18:00 +11°C° 0 mm 1 mps 756 mmHg 75%
    19:00 +9°C° 0 mm 0 mps 756 mmHg 78%
    20:00 +10°C° 0 mm 1 mps 756 mmHg 80%
    21:00 +9°C° 0 mm 1 mps 756 mmHg 81%
    22:00 +8°C° 0 mm 2 mps 756 mmHg 83%
    23:00 +7°C° 0 mm 2 mps 756 mmHg 84%

    Tomorrow, 22 March, Friday

    Time Temperature Precipitation Wind Pressure Humidity
    00:00 +7°C° 0 mm 2 mps 756 mmHg 85%
    01:00 +8°C° 0 mm 1 mps 756 mmHg 85%
    02:00 +8°C° 0 mm 1 mps 756 mmHg 86%
    03:00 +7°C° 0 mm 1 mps 756 mmHg 87%
    04:00 +7°C° 0 mm 1 mps 756 mmHg 88%
    05:00 +8°C° 0 mm 1 mps 757 mmHg 88%
    06:00 +8°C° 0 mm 1 mps 757 mmHg 87%
    07:00 +8°C° 0 mm 1 mps 757 mmHg 86%
    08:00 +10°C° 0 mm 1 mps 757 mmHg 83%
    09:00 +10°C° 0 mm 2 mps 757 mmHg 80%
    10:00 +12°C° 0 mm 2 mps 757 mmHg 76%
    11:00 +12°C° 0 mm 2 mps 757 mmHg 77%
    12:00 +12°C° 0 mm 1 mps 757 mmHg 78%
    13:00 +12°C° 0 mm 1 mps 757 mmHg 79%
    14:00 +13°C° 0 mm 1 mps 756 mmHg 75%
    15:00 +14°C° 0 mm 1 mps 756 mmHg 72%
    16:00 +14°C° 0 mm 1 mps 756 mmHg 68%
    17:00 +13°C° 0 mm 1 mps 756 mmHg 74%
    18:00 +12°C° 0 mm 1 mps 755 mmHg 79%
    19:00 +10°C° 0 mm 1 mps 755 mmHg 85%
    20:00 +10°C° 0 mm 1 mps 755 mmHg 87%
    21:00 +9°C° 0 mm 2 mps 755 mmHg 88%
    22:00 +8°C° 0 mm 2 mps 755 mmHg 89%
    23:00 +8°C° 0 mm 2 mps 755 mmHg 89%

    Day after tomorrow, 23 March, Saturday

    Time Temperature Precipitation Wind Pressure Humidity
    00:00 +8°C° 0 mm 2 mps 755 mmHg 89%
    01:00 +7°C° 0 mm 2 mps 755 mmHg 89%
    02:00 +7°C° 0 mm 2 mps 754 mmHg 89%
    03:00 +7°C° 0 mm 2 mps 754 mmHg 89%
    04:00 +7°C° 0 mm 2 mps 753 mmHg 89%
    05:00 +7°C° 0 mm 2 mps 753 mmHg 88%
    06:00 +8°C° 0 mm 2 mps 753 mmHg 87%
    07:00 +8°C° 0 mm 2 mps 753 mmHg 86%
    08:00 +11°C° 0 mm 1 mps 753 mmHg 77%
    09:00 +13°C° 0 mm 1 mps 753 mmHg 69%
    10:00 +16°C° 0 mm 1 mps 753 mmHg 61%
    11:00 +18°C° 0 mm 1 mps 752 mmHg 57%
    12:00 +18°C° 0 mm 2 mps 752 mmHg 52%
    13:00 +19°C° 0 mm 2 mps 752 mmHg 48%
    14:00 +19°C° 0 mm 2 mps 751 mmHg 48%
    15:00 +19°C° 0 mm 2 mps 751 mmHg 48%
    16:00 +19°C° 0 mm 2 mps 750 mmHg 48%
    17:00 +18°C° 0 mm 2 mps 751 mmHg 54%
    18:00 +16°C° 0 mm 2 mps 751 mmHg 59%
    19:00 +14°C° 0 mm 2 mps 751 mmHg 65%
    20:00 +14°C° 0 mm 2 mps 751 mmHg 68%
    21:00 +14°C° 0 mm 2 mps 751 mmHg 71%
    22:00 +12°C° 0 mm 3 mps 751 mmHg 75%
    23:00 +11°C° 0 mm 3 mps 752 mmHg 81%

    24 March, Sunday

    Time Temperature Precipitation Wind Pressure Humidity
    00:00 +10°C° 0 mm 3 mps 752 mmHg 87%
    01:00 +9°C° 0 mm 3 mps 752 mmHg 94%
    02:00 +9°C° 0.1 mm 3 mps 752 mmHg 91%
    03:00 +9°C° 0.1 mm 3 mps 752 mmHg 89%
    04:00 +8°C° 0.1 mm 3 mps 752 mmHg 86%
    05:00 +8°C° 0 mm 3 mps 752 mmHg 83%
    06:00 +7°C° 0 mm 3 mps 752 mmHg 79%
    07:00 +7°C° 0 mm 3 mps 753 mmHg 75%
    08:00 +7°C° 0 mm 3 mps 753 mmHg 68%
    09:00 +8°C° 0 mm 3 mps 753 mmHg 61%
    10:00 +9°C° 0 mm 3 mps 753 mmHg 53%
    11:00 +9°C° 0 mm 3 mps 753 mmHg 51%
    12:00 +10°C° 0 mm 3 mps 752 mmHg 48%
    13:00 +10°C° 0 mm 3 mps 752 mmHg 45%
    14:00 +10°C° 0 mm 3 mps 752 mmHg 45%
    15:00 +10°C° 0 mm 4 mps 752 mmHg 44%
    16:00 +10°C° 0 mm 4 mps 752 mmHg 44%
    17:00 +9°C° 0 mm 3 mps 752 mmHg 49%
    18:00 +7°C° 0 mm 3 mps 752 mmHg 54%
    19:00 +6°C° 0 mm 2 mps 752 mmHg 59%
    20:00 +5°C° 0 mm 2 mps 752 mmHg 61%
    21:00 +5°C° 0 mm 2 mps 753 mmHg 63%
    22:00 +5°C° 0 mm 1 mps 753 mmHg 66%
    23:00 +5°C° 0 mm 1 mps 753 mmHg 68%

    25 March, Monday

    Time Temperature Precipitation Wind Pressure Humidity
    00:00 +5°C° 0 mm 1 mps 753 mmHg 69%
    01:00 +4°C° 0 mm 1 mps 753 mmHg 71%
    02:00 +3°C° 0 mm 2 mps 752 mmHg 73%
    03:00 +2°C° 0 mm 2 mps 752 mmHg 75%
    04:00 +2°C° 0 mm 2 mps 752 mmHg 77%
    05:00 +2°C° 0 mm 2 mps 752 mmHg 75%
    06:00 +3°C° 0 mm 2 mps 752 mmHg 74%
    07:00 +3°C° 0 mm 2 mps 752 mmHg 72%
    08:00 +3°C° 0 mm 3 mps 752 mmHg 66%
    09:00 +5°C° 0 mm 4 mps 752 mmHg 59%
    10:00 +7°C° 0 mm 5 mps 751 mmHg 52%
    11:00 +7°C° 0 mm 6 mps 751 mmHg 49%
    12:00 +8°C° 0 mm 6 mps 750 mmHg 46%
    13:00 +9°C° 0 mm 7 mps 750 mmHg 43%
    14:00 +8°C° 0 mm 7 mps 749 mmHg 47%
    15:00 +7°C° 0 mm 8 mps 749 mmHg 50%
    16:00 +7°C° 0 mm 8 mps 748 mmHg 53%
    17:00 +6°C° 0.3 mm 8 mps 748 mmHg 60%
    18:00 +5°C° 0.3 mm 7 mps 748 mmHg 66%
    19:00 +3°C° 0.3 mm 7 mps 748 mmHg 72%
    20:00 +3°C° 0.3 mm 7 mps 748 mmHg 73%
    21:00 +2°C° 0.3 mm 7 mps 749 mmHg 74%
    22:00 +2°C° 0.3 mm 6 mps 749 mmHg 75%
    23:00 +1°C° 0 mm 6 mps 749 mmHg 77%

    26 March, Tuesday

    Time Temperature Precipitation Wind Pressure Humidity
    00:00 -1°C° 0 mm 6 mps 750 mmHg 79%
    01:00 -1°C° 0 mm 6 mps 750 mmHg 80%
    02:00 -2°C° 0 mm 6 mps 750 mmHg 80%
    03:00 -2°C° 0 mm 7 mps 750 mmHg 80%
    04:00 -2°C° 0 mm 7 mps 751 mmHg 80%
    05:00 -2°C° 0 mm 7 mps 751 mmHg 81%
    06:00 -2°C° 0 mm 7 mps 752 mmHg 82%
    07:00 -2°C° 0 mm 7 mps 752 mmHg 83%
    08:00 -1°C° 0.1 mm 7 mps 753 mmHg 80%
    09:00 0°C° 0.1 mm 7 mps 753 mmHg 78%
    10:00 +2°C° 0.1 mm 6 mps 754 mmHg 76%
    11:00 +2°C° 0 mm 6 mps 754 mmHg 72%
    12:00 +3°C° 0 mm 6 mps 754 mmHg 69%
    13:00 +5°C° 0 mm 5 mps 754 mmHg 66%
    14:00 +5°C° 0 mm 5 mps 754 mmHg 64%
    15:00 +6°C° 0 mm 4 mps 754 mmHg 61%
    16:00 +6°C° 0 mm 4 mps 754 mmHg 59%
    17:00 +5°C° 0 mm 3 mps 754 mmHg 62%
    18:00 +5°C° 0 mm 3 mps 754 mmHg 65%
    19:00 +5°C° 0 mm 2 mps 755 mmHg 69%
    20:00 +3°C° 0 mm 3 mps 755 mmHg 69%
    21:00 +3°C° 0 mm 3 mps 755 mmHg 70%
    22:00 +3°C° 0 mm 3 mps 755 mmHg 70%
    23:00 +2°C° 0 mm 3 mps 755 mmHg 72%
    Show more